User: anonymous   Login
Location: Muenchen
(48.1800°N, 11.5800°E)
Time: 21:46:48
(UTC+02:00)
Language:

Sich 1 Rocket - Orbit

View from above orbital plane
View from above orbital plane
View from above satellite
View from above satellite

Ground track
Ground track

The orbit data is extracted from the following two-line orbital elements,

1 23659U 95046C   15147.09434337  .00000206  00000-0  25193-4 0  9992
2 23659 082.5301 283.2087 0026049 170.5660 316.4435 14.78055495 63443
Epoch (UTC): 27 May 2015 02:15:51
Eccentricity: 0.0026049
inclination: 82.5301°
perigee height: 617 km
apogee height: 654 km
right ascension of ascending node: 283.2087°
argument of perigee: 170.5660°
revolutions per day: 14.78055495
mean anomaly at epoch: 316.4435°
orbit number at epoch: 6344

The dashed part of the orbit path shows where the satellite is in the earth's shadow,  

DLR